| time (UTC) | temp F | wind direction | speed knots | gust knots | rain 1hr in | rain 24hr in | rain mn in | humidity % | barometer mb |
| 20260505122104 | 55 | 321 | 2.6 | 4.3 | 0.00 | 0.00 | 0.00 | 1012.8 | |
| 20260505121604 | 55 | 321 | 1.7 | 4.3 | 0.00 | 0.00 | 0.00 | 1012.8 | |
| 20260505121104 | 56 | 322 | 2.6 | 4.3 | 0.00 | 0.00 | 0.00 | 1012.8 | |
| 20260505120105 | 56 | 320 | 1.7 | 4.3 | 0.00 | 0.00 | 0.00 | 1012.8 | |
| 20260505115604 | 55 | 320 | 2.6 | 4.3 | 0.00 | 0.00 | 0.00 | 1012.8 | |
| 20260505114604 | 55 | 319 | 1.7 | 4.3 | 0.00 | 0.00 | 0.00 | 1012.8 | |
| 20260505114104 | 55 | 316 | 0.0 | 4.3 | 0.00 | 0.00 | 0.00 | 1012.8 | |
| 20260505113605 | 54 | 318 | 2.6 | 4.3 | 0.00 | 0.00 | 0.00 | 1012.8 | |
| 20260505113104 | 54 | 318 | 0.0 | 4.3 | 0.00 | 0.00 | 0.00 | 1012.8 | |
| 20260505112604 | 54 | 318 | 0.9 | 1.7 | 0.00 | 0.00 | 0.00 | 1012.8 | |
| 20260505112104 | 54 | 318 | 0.9 | 1.7 | 0.00 | 0.00 | 0.00 | 1012.8 | |
| 20260505111604 | 54 | 318 | 1.7 | 4.3 | 0.00 | 0.00 | 0.00 | 1012.8 | |
| 20260505111105 | 54 | 317 | 4.3 | 4.3 | 0.00 | 0.00 | 0.00 | 1012.8 | |
| 20260505110604 | 54 | 319 | 0.0 | 1.7 | 0.00 | 0.00 | 0.00 | 1012.8 | |
| 20260505110104 | 54 | 319 | 1.7 | 1.7 | 0.00 | 0.00 | 0.00 | 1013.0 | |
| 20260505102104 | 53 | 314 | 0.0 | 1.7 | 0.00 | 0.00 | 0.00 | 1013.0 | |
| 20260505101604 | 53 | 314 | 0.0 | 1.7 | 0.00 | 0.00 | 0.00 | 1013.0 | |
| 20260505101104 | 53 | 313 | 0.0 | 1.7 | 0.00 | 0.00 | 0.00 | 1013.0 | |
| 20260505100606 | 53 | 312 | 0.9 | 1.7 | 0.00 | 0.00 | 0.00 | 1013.0 | |
| 20260505100104 | 53 | 310 | 0.9 | 1.7 | 0.00 | 0.00 | 0.00 | 1013.0 | |
| 20260505095605 | 52 | 309 | 0.0 | 0.0 | 0.00 | 0.00 | 0.00 | 1013.0 | |
| 20260505094604 | 52 | 310 | 0.9 | 1.7 | 0.00 | 0.00 | 0.00 | 1013.0 | |
| 20260505094105 | 52 | 309 | 0.0 | 0.0 | 0.00 | 0.00 | 0.00 | 1013.0 | |
| 20260505093604 | 51 | 308 | 0.9 | 1.7 | 0.00 | 0.00 | 0.00 | 1013.0 | |
| 20260505093104 | 51 | 308 | 0.0 | 0.0 | 0.00 | 0.00 | 0.00 | 1013.0 | |
| 20260505092605 | 51 | 307 | 0.0 | 0.0 | 0.00 | 0.00 | 0.00 | 1013.0 | |
| 20260505092104 | 51 | 307 | 0.0 | 0.0 | 0.00 | 0.00 | 0.00 | 1013.0 | |
| 20260505091606 | 51 | 307 | 4.3 | 4.3 | 0.00 | 0.00 | 0.00 | 1013.0 | |
| 20260505091104 | 51 | 305 | 0.0 | 1.7 | 0.00 | 0.00 | 0.00 | 1013.0 | |
| 20260505090604 | 51 | 305 | 2.6 | 4.3 | 0.00 | 0.00 | 0.00 | 1013.0 | |
| 20260505085604 | 50 | 305 | 2.6 | 4.3 | 0.00 | 0.00 | 0.00 | 1012.9 | |
| 20260505085106 | 50 | 304 | 0.9 | 1.7 | 0.00 | 0.00 | 0.00 | 1012.9 | |
| 20260505084104 | 50 | 301 | 0.9 | 1.7 | 0.00 | 0.00 | 0.00 | 1012.9 | |
| 20260505083605 | 49 | 300 | 0.9 | 1.7 | 0.00 | 0.00 | 0.00 | 1012.9 | |
| 20260505083104 | 48 | 299 | 0.0 | 0.0 | 0.00 | 0.00 | 0.00 | 1012.9 | |
| 20260505082104 | 48 | 297 | 0.0 | 0.0 | 0.00 | 0.00 | 0.00 | 1012.9 | |
| 20260505081604 | 47 | 296 | 0.0 | 0.0 | 0.00 | 0.00 | 0.00 | 1012.9 | |
| 20260505081104 | 47 | 294 | 0.0 | 0.0 | 0.00 | 0.00 | 0.00 | 1012.9 | |
| 20260505080604 | 47 | 294 | 0.0 | 0.0 | 0.00 | 0.00 | 0.00 | 1012.9 | |
| 20260505080105 | 47 | 293 | 0.9 | 1.7 | 0.00 | 0.00 | 0.00 | 1013.0 | |
| 20260505074604 | 46 | 292 | 1.7 | 4.3 | 0.00 | 0.00 | 0.00 | 1013.0 | |
| 20260505074104 | 46 | 292 | 2.6 | 4.3 | 0.00 | 0.00 | 0.00 | 1013.0 | |
| 20260505073604 | 46 | 292 | 1.7 | 1.7 | 0.00 | 0.00 | 0.00 | 1013.0 | |
| 20260505073104 | 46 | 291 | 0.0 | 1.7 | 0.00 | 0.00 | 0.00 | 1013.0 | |
| 20260505072104 | 46 | 290 | 0.9 | 1.7 | 0.00 | 0.00 | 0.00 | 1013.0 | |
| 20260505071604 | 45 | 289 | 0.0 | 0.0 | 0.00 | 0.00 | 0.00 | 1013.0 | |
| 20260505065604 | 45 | 288 | 2.6 | 4.3 | 0.00 | 0.00 | 0.00 | 1012.7 | |
| 20260505065104 | 45 | 288 | 4.3 | 4.3 | 0.00 | 0.00 | 0.00 | 1012.7 | |
| 20260505064604 | 45 | 287 | 0.0 | 0.0 | 0.00 | 0.00 | 0.00 | 1012.7 | |
| 20260505064104 | 44 | 287 | 0.0 | 0.0 | 0.00 | 0.00 | 0.00 | 1012.7 | |
| 20260505063604 | 44 | 287 | 0.0 | 0.0 | 0.00 | 0.00 | 0.00 | 1012.7 | |
| 20260505063104 | 44 | 286 | 0.9 | 1.7 | 0.00 | 0.00 | 0.00 | 1012.7 | |
| 20260505062606 | 43 | 286 | 0.0 | 0.0 | 0.00 | 0.00 | 0.00 | 1012.7 | |
| 20260505062104 | 43 | 285 | 0.0 | 0.0 | 0.00 | 0.00 | 0.00 | 1012.7 | |
| 20260505061104 | 43 | 285 | 0.0 | 0.0 | 0.00 | 0.00 | 0.00 | 1012.7 | |
| 20260505060604 | 42 | 284 | 0.0 | 1.7 | 0.00 | 0.00 | 0.00 | 1012.7 | |
| 20260505055604 | 42 | 284 | 0.0 | 1.7 | 0.00 | 0.00 | 0.00 | 1012.7 | |
| 20260505055106 | 42 | 284 | 0.9 | 1.7 | 0.00 | 0.00 | 0.00 | 1012.7 | |
| 20260505054604 | 42 | 283 | 0.0 | 0.0 | 0.00 | 0.00 | 0.00 | 1012.7 | |
| 20260505054104 | 41 | 283 | 0.0 | 0.0 | 0.00 | 0.00 | 0.00 | 1012.7 | |
| 20260505053604 | 41 | 283 | 0.0 | 0.0 | 0.00 | 0.00 | 0.00 | 1012.7 | |
| 20260505052604 | 40 | 282 | 0.9 | 1.7 | 0.00 | 0.00 | 0.00 | 1012.7 | |
| 20260505052105 | 40 | 282 | 0.0 | 0.0 | 0.00 | 0.00 | 0.00 | 1012.7 | |
| 20260505051604 | 40 | 282 | 0.0 | 0.0 | 0.00 | 0.00 | 0.00 | 1012.7 | |
| 20260505051104 | 39 | 282 | 0.0 | 0.0 | 0.00 | 0.00 | 0.00 | 1012.7 | |
| 20260505050604 | 39 | 282 | 0.0 | 0.0 | 0.00 | 0.00 | 0.00 | 1012.7 | |
| 20260505050105 | 39 | 281 | 0.0 | 0.0 | 0.00 | 0.00 | 0.00 | 1012.5 | |
| 20260505041604 | 39 | 281 | 0.0 | 0.0 | 0.00 | 0.00 | 0.00 | 1012.5 | |
| 20260505041104 | 39 | 281 | 0.0 | 0.0 | 0.00 | 0.00 | 0.00 | 1012.5 | |
| 20260505040604 | 39 | 281 | 0.0 | 0.0 | 0.00 | 0.00 | 0.00 | 1012.5 | |
| 20260505040106 | 39 | 281 | 0.0 | 0.0 | 0.00 | 0.00 | 0.00 | 1012.6 | |
| 20260505035604 | 40 | 281 | 0.0 | 0.0 | 0.00 | 0.00 | 0.00 | 1012.6 | |
| 20260505035104 | 39 | 282 | 0.0 | 0.0 | 0.00 | 0.00 | 0.00 | 1012.6 | |
| 20260505034104 | 40 | 282 | 0.0 | 0.0 | 0.00 | 0.00 | 0.00 | 1012.6 | |
| 20260505033604 | 40 | 282 | 0.0 | 0.0 | 0.00 | 0.00 | 0.00 | 1012.6 | |
| 20260505033104 | 40 | 282 | 0.0 | 0.0 | 0.00 | 0.00 | 0.00 | 1012.6 | |
| 20260505032604 | 39 | 282 | 0.0 | 0.0 | 0.00 | 0.00 | 0.00 | 1012.6 | |
| 20260505032104 | 40 | 282 | 0.0 | 0.0 | 0.00 | 0.00 | 0.00 | 1012.6 | |
| 20260505031104 | 40 | 282 | 0.0 | 0.0 | 0.00 | 0.00 | 0.00 | 1012.6 | |
| 20260505030604 | 40 | 282 | 0.0 | 0.0 | 0.00 | 0.00 | 0.00 | 1012.6 | |
| 20260505030104 | 40 | 282 | 0.0 | 0.0 | 0.00 | 0.00 | 0.00 | 1012.8 | |
| 20260505025605 | 40 | 282 | 0.0 | 0.0 | 0.00 | 0.00 | 0.00 | 1012.8 | |
| 20260505025104 | 40 | 282 | 0.0 | 0.0 | 0.00 | 0.00 | 0.00 | 1012.8 | |
| 20260505024604 | 40 | 282 | 0.0 | 0.0 | 0.00 | 0.00 | 0.00 | 1012.8 | |
| 20260505024104 | 40 | 282 | 0.0 | 0.0 | 0.00 | 0.00 | 0.00 | 1012.8 | |
| 20260505023604 | 41 | 282 | 0.0 | 0.0 | 0.00 | 0.00 | 0.00 | 1012.8 | |
| 20260505023104 | 41 | 283 | 0.0 | 0.0 | 0.00 | 0.00 | 0.00 | 1012.8 | |
| 20260505022103 | 41 | 283 | 0.0 | 0.0 | 0.00 | 0.00 | 0.00 | 1012.8 | |
| 20260505021104 | 41 | 283 | 0.0 | 0.0 | 0.00 | 0.00 | 0.00 | 1012.8 | |
| 20260505020604 | 41 | 283 | 0.0 | 0.0 | 0.00 | 0.00 | 0.00 | 1012.8 | |
| 20260505020104 | 41 | 283 | 0.0 | 0.0 | 0.00 | 0.00 | 0.00 | 1013.0 | |
| 20260505015604 | 41 | 283 | 0.0 | 0.0 | 0.00 | 0.00 | 0.00 | 1013.0 | |
| 20260505015104 | 41 | 283 | 0.0 | 0.0 | 0.00 | 0.00 | 0.00 | 1013.0 | |
| 20260505014603 | 41 | 283 | 0.0 | 0.0 | 0.00 | 0.00 | 0.00 | 1013.0 | |
| 20260505014104 | 42 | 283 | 0.0 | 0.0 | 0.00 | 0.00 | 0.00 | 1013.0 | |
| 20260505013105 | 42 | 284 | 0.0 | 0.0 | 0.00 | 0.00 | 0.00 | 1013.0 | |
| 20260505012604 | 42 | 284 | 0.0 | 0.0 | 0.00 | 0.00 | 0.00 | 1013.0 | |
| 20260505012104 | 42 | 284 | 0.0 | 0.0 | 0.00 | 0.00 | 0.00 | 1013.0 | |
| 20260505011606 | 43 | 284 | 0.0 | 0.0 | 0.00 | 0.00 | 0.00 | 1013.0 | |
| 20260505011104 | 43 | 284 | 0.0 | 0.0 | 0.00 | 0.00 | 0.00 | 1013.0 | |
| 20260505010604 | 43 | 284 | 0.0 | 0.0 | 0.00 | 0.00 | 0.00 | 1013.0 | |
| 20260505010104 | 43 | 284 | 0.0 | 0.0 | 0.00 | 0.00 | 0.00 | 1013.1 | |
| 20260505005105 | 43 | 285 | 0.0 | 0.0 | 0.00 | 0.00 | 0.00 | 1013.1 | |
| 20260505004604 | 43 | 285 | 0.0 | 0.0 | 0.00 | 0.00 | 0.00 | 1013.1 | |
| 20260505004104 | 43 | 285 | 0.0 | 0.0 | 0.00 | 0.00 | 0.00 | 1013.1 | |
| 20260505003105 | 43 | 285 | 0.0 | 0.0 | 0.00 | 0.00 | 0.00 | 1013.1 | |
| 20260505002604 | 44 | 285 | 0.0 | 0.0 | 0.00 | 0.00 | 0.00 | 1013.1 | |
| 20260505002104 | 44 | 285 | 0.0 | 0.0 | 0.00 | 0.00 | 0.00 | 1013.1 | |
| 20260505001604 | 44 | 285 | 0.0 | 0.0 | 0.00 | 0.00 | 0.00 | 1013.1 | |
| 20260505001103 | 44 | 286 | 0.0 | 0.0 | 0.00 | 0.00 | 0.00 | 1013.1 | |
| 20260505000604 | 44 | 286 | 0.0 | 0.0 | 0.00 | 0.00 | 0.00 | 1013.1 | |
| 20260505000104 | 44 | 286 | 0.0 | 0.0 | 0.00 | 0.00 | 0.00 | 1013.2 | |
| 20260504235605 | 44 | 286 | 0.0 | 0.0 | 0.00 | 0.00 | 0.00 | 1013.2 | |
| 20260504235104 | 45 | 286 | 0.0 | 0.0 | 0.00 | 0.00 | 0.00 | 1013.2 | |
| 20260504234605 | 45 | 286 | 0.0 | 1.7 | 0.00 | 0.00 | 0.00 | 1013.2 | |
| 20260504234105 | 45 | 286 | 1.7 | 1.7 | 0.00 | 0.00 | 0.00 | 1013.2 | |
| 20260504233604 | 45 | 287 | 0.0 | 0.0 | 0.00 | 0.00 | 0.00 | 1013.2 | |
| 20260504233104 | 46 | 287 | 0.0 | 0.0 | 0.00 | 0.00 | 0.00 | 1013.2 | |
| 20260504232604 | 46 | 287 | 0.0 | 0.0 | 0.00 | 0.00 | 0.00 | 1013.2 | |
| 20260504232106 | 46 | 287 | 0.0 | 0.0 | 0.00 | 0.00 | 0.00 | 1013.2 | |
| 20260504231606 | 46 | 287 | 0.0 | 1.7 | 0.00 | 0.00 | 0.00 | 1013.2 | |
| 20260504231104 | 46 | 288 | 0.0 | 1.7 | 0.00 | 0.00 | 0.00 | 1013.2 | |
| 20260504230104 | 47 | 288 | 0.0 | 0.0 | 0.00 | 0.00 | 0.00 | 1013.5 | |
| 20260504225606 | 47 | 288 | 0.0 | 0.0 | 0.00 | 0.00 | 0.00 | 1013.5 | |
| 20260504224604 | 47 | 288 | 0.0 | 0.0 | 0.00 | 0.00 | 0.00 | 1013.5 | |
| 20260504224104 | 47 | 288 | 0.0 | 0.0 | 0.00 | 0.00 | 0.00 | 1013.5 | |
| 20260504223604 | 47 | 288 | 0.0 | 0.0 | 0.00 | 0.00 | 0.00 | 1013.5 | |
| 20260504223105 | 47 | 289 | 0.0 | 0.0 | 0.00 | 0.00 | 0.00 | 1013.5 | |
| 20260504222604 | 47 | 289 | 1.7 | 1.7 | 0.00 | 0.00 | 0.00 | 1013.5 | |
| 20260504222104 | 47 | 289 | 0.0 | 1.7 | 0.00 | 0.00 | 0.00 | 1013.5 | |
| 20260504221604 | 47 | 289 | 0.9 | 1.7 | 0.00 | 0.00 | 0.00 | 1013.5 | |
| 20260504221104 | 47 | 289 | 1.7 | 1.7 | 0.00 | 0.00 | 0.00 | 1013.5 | |
| 20260504220606 | 48 | 290 | 1.7 | 1.7 | 0.00 | 0.00 | 0.00 | 1013.5 | |
| 20260504220105 | 48 | 289 | 1.7 | 4.3 | 0.00 | 0.00 | 0.00 | 1013.7 | |
| 20260504215604 | 48 | 290 | 1.7 | 4.3 | 0.00 | 0.00 | 0.00 | 1013.7 | |
| 20260504214604 | 47 | 290 | 1.7 | 1.7 | 0.00 | 0.00 | 0.00 | 1013.7 | |
| 20260504213604 | 47 | 291 | 1.7 | 1.7 | 0.00 | 0.00 | 0.00 | 1013.7 | |
| 20260504213104 | 48 | 291 | 1.7 | 1.7 | 0.00 | 0.00 | 0.00 | 1013.7 | |
| 20260504212104 | 48 | 292 | 0.9 | 1.7 | 0.00 | 0.00 | 0.00 | 1013.7 | |
| 20260504211604 | 48 | 292 | 0.0 | 0.0 | 0.00 | 0.00 | 0.00 | 1013.7 | |
| 20260504211104 | 49 | 293 | 0.0 | 0.0 | 0.00 | 0.00 | 0.00 | 1013.7 | |
| 20260504210605 | 49 | 293 | 0.0 | 0.0 | 0.00 | 0.00 | 0.00 | 1013.7 | |
| 20260504210104 | 49 | 294 | 0.0 | 1.7 | 0.00 | 0.00 | 0.00 | 1013.5 | |
| 20260504205604 | 49 | 295 | 1.7 | 1.7 | 0.00 | 0.00 | 0.00 | 1013.5 | |
| 20260504204604 | 50 | 295 | 0.0 | 1.7 | 0.00 | 0.00 | 0.00 | 1013.5 | |
| 20260504204104 | 50 | 296 | 0.0 | 1.7 | 0.00 | 0.00 | 0.00 | 1013.5 | |
| 20260504203606 | 50 | 297 | 1.7 | 1.7 | 0.00 | 0.00 | 0.00 | 1013.5 | |
| 20260504203104 | 50 | 298 | 0.0 | 0.0 | 0.00 | 0.00 | 0.00 | 1013.5 | |
| 20260504202604 | 51 | 298 | 0.0 | 4.3 | 0.00 | 0.00 | 0.00 | 1013.5 | |
| 20260504202104 | 51 | 300 | 0.9 | 1.7 | 0.00 | 0.00 | 0.00 | 1013.5 | |
| 20260504201604 | 51 | 301 | 0.9 | 1.7 | 0.00 | 0.00 | 0.00 | 1013.5 | |
| 20260504201104 | 51 | 301 | 0.9 | 1.7 | 0.00 | 0.00 | 0.00 | 1013.5 | |
| 20260504200106 | 52 | 303 | 1.7 | 4.3 | 0.00 | 0.00 | 0.00 | 1013.3 | |
| 20260504195604 | 52 | 304 | 1.7 | 1.7 | 0.00 | 0.00 | 0.00 | 1013.3 | |
| 20260504195104 | 52 | 306 | 1.7 | 4.3 | 0.00 | 0.00 | 0.00 | 1013.3 | |
| 20260504194104 | 53 | 309 | 4.3 | 6.1 | 0.00 | 0.00 | 0.00 | 1013.3 | |
| 20260504193605 | 53 | 311 | 1.7 | 4.3 | 0.00 | 0.00 | 0.00 | 1013.3 | |
| 20260504193106 | 54 | 313 | 1.7 | 6.1 | 0.00 | 0.00 | 0.00 | 1013.3 | |
| 20260504192105 | 54 | 317 | 4.3 | 4.3 | 0.00 | 0.00 | 0.00 | 1013.3 | |
| 20260504191605 | 55 | 319 | 2.6 | 4.3 | 0.00 | 0.00 | 0.00 | 1013.3 | |
| 20260504191104 | 55 | 320 | 5.2 | 6.1 | 0.00 | 0.00 | 0.00 | 1013.3 | |
| 20260504190604 | 56 | 323 | 1.7 | 4.3 | 0.00 | 0.00 | 0.00 | 1013.3 | |
| 20260504190104 | 56 | 325 | 1.7 | 4.3 | 0.00 | 0.00 | 0.00 | 1013.2 | |
| 20260504185604 | 57 | 326 | 2.6 | 6.1 | 0.00 | 0.00 | 0.00 | 1013.2 | |
| 20260504184604 | 58 | 327 | 2.6 | 4.3 | 0.00 | 0.00 | 0.00 | 1013.2 | |
| 20260504184104 | 58 | 328 | 5.2 | 7.8 | 0.00 | 0.00 | 0.00 | 1013.2 | |
| 20260504183604 | 58 | 328 | 5.2 | 7.8 | 0.00 | 0.00 | 0.00 | 1013.2 | |
| 20260504182105 | 58 | 330 | 6.1 | 6.1 | 0.00 | 0.00 | 0.00 | 1013.2 | |
| 20260504181604 | 58 | 331 | 6.1 | 7.8 | 0.00 | 0.00 | 0.00 | 1013.2 | |
| 20260504181104 | 58 | 332 | 5.2 | 7.8 | 0.00 | 0.00 | 0.00 | 1013.2 | |
| 20260504180104 | 59 | 334 | 6.1 | 6.1 | 0.00 | 0.00 | 0.00 | 1013.4 | |
| 20260504175604 | 59 | 335 | 6.1 | 6.1 | 0.00 | 0.00 | 0.00 | 1013.4 | |
| 20260504175104 | 59 | 336 | 5.2 | 6.1 | 0.00 | 0.00 | 0.00 | 1013.4 | |
| 20260504174104 | 60 | 337 | 6.1 | 7.8 | 0.00 | 0.00 | 0.00 | 1013.4 | |
| 20260504173606 | 59 | 337 | 6.1 | 7.8 | 0.00 | 0.00 | 0.00 | 1013.4 | |
| 20260504173104 | 59 | 338 | 6.1 | 6.1 | 0.00 | 0.00 | 0.00 | 1013.4 | |
| 20260504172604 | 60 | 338 | 7.8 | 7.8 | 0.00 | 0.00 | 0.00 | 1013.4 | |
| 20260504172104 | 60 | 339 | 7.0 | 7.8 | 0.00 | 0.00 | 0.00 | 1013.4 | |
| 20260504171604 | 60 | 339 | 6.1 | 6.1 | 0.00 | 0.00 | 0.00 | 1013.4 | |
| 20260504171104 | 60 | 339 | 7.0 | 11.3 | 0.00 | 0.00 | 0.00 | 1013.4 | |
| 20260504170604 | 60 | 341 | 4.3 | 7.8 | 0.00 | 0.00 | 0.00 | 1013.4 | |
| 20260504170104 | 59 | 341 | 7.8 | 7.8 | 0.00 | 0.00 | 0.00 | 1013.6 | |
| 20260504160104 | 60 | 346 | 7.0 | 7.8 | 0.00 | 0.00 | 0.00 | 1013.6 | |
| 20260504151104 | 60 | 345 | 7.8 | 11.3 | 0.00 | 0.00 | 0.00 | 1013.6 | |
| 20260504150604 | 60 | 344 | 7.8 | 7.8 | 0.00 | 0.00 | 0.00 | 1013.6 | |
| 20260504150106 | 60 | 344 | 7.8 | 7.8 | 0.00 | 0.00 | 0.00 | 1013.9 | |
| 20260504141104 | 60 | 336 | 5.2 | 7.8 | 0.00 | 0.00 | 0.00 | 1013.9 | |
| 20260504140605 | 60 | 337 | 6.1 | 7.8 | 0.00 | 0.00 | 0.00 | 1013.9 | |
| 20260504140104 | 59 | 336 | 6.1 | 7.8 | 0.00 | 0.00 | 0.00 | 1014.1 | |
| 20260504130604 | 59 | 331 | 6.1 | 7.8 | 0.00 | 0.00 | 0.00 | 1014.1 |